Location: Rottenacker
(48.2350°N, 9.6886°E)
Time: 17:39:56
(UTC+01:00)

ISS - Pass Details

Date: 28 October 2019
Orbit: 412 x 421 km, 51.6° (Epoch: 14 November)

Event Time Altitude Azimuth Distance (km) Brightness Sun altitude
Exits shadow 05:43:39 16° 232° (SW) 1,178 -1.9 -13.2°
Maximum altitude 05:46:11 65° 153° (SSE) 467 -3.4 -12.8°
Drops below altitude 10° 05:49:32 10° 71° (ENE) 1,508 0.2 -12.2°
Sets 05:51:39 0° 68° (ENE) 2,373 1.3 -11.9°
